Location: Beadle
(51.4667°N, 109.0000°W)
Time: 05:41:23
(UTC+00:00)

Envisat - Pass Details

Date: 21 January 2022
Orbit: 764 x 765 km, 98.2° (Epoch: 25 May)

Event Time Altitude Azimuth Distance (km) Brightness Sun altitude
Rises 10:43:25 0° 28° (NNE) 3,243 6.8 -40.5°
Reaches altitude 10° 10:46:54 10° 53° (NE) 2,311 6.1 -40.0°
Maximum altitude 10:49:35 14° 85° (E) 2,027 5.8 -39.6°
Drops below altitude 10° 10:52:14 10° 117° (ESE) 2,302 5.9 -39.2°
Sets 10:55:41 0° 142° (SE) 3,222 6.4 -38.7°
